Location: 5810 Zion Rd, Cleves, OH 45002, USA
(39.1922°N, 84.7113°W)
Time: 19:16:42
(UTC-05:00)

Courier 1B Rocket - Pass Details

Date: 13 December 2019
Orbit: 920 x 1202 km, 28.2° (Epoch: 19 January)

Event Time Altitude Azimuth Distance (km) Brightness Sun altitude
Rises 03:34:36 0° 200° (SSW) 4,015 - -48.4°
Reaches altitude 10° 03:40:17 10° 167° (SSE) 2,990 - -47.4°
Maximum altitude 03:42:01 11° 153° (SSE) 2,900 - -47.0°
Drops below altitude 10° 03:43:44 10° 139° (SE) 2,944 - -46.7°
Exits shadow 03:43:46 10° 139° (SE) 2,947 7.7 -46.7°
Sets 03:49:07 0° 105° (ESE) 3,820 8.8 -45.7°
